Location: Oshawa
(43.9000°N, 78.8670°W)
Time: 12:58:14
(UTC-04:00)

Cosmos 1805 Rocket - Visible Passes

Search period start: 23 May 2017 00:00
Search period end: 02 June 2017 00:00
Orbit: 606 x 630 km, 82.5° (Epoch: 22 May)

Date Brightness Start Highest point End Pass type
(mag) Time Alt. Az. Time Alt. Az. Time Alt. Az.
23 May 3.5 04:18:52 13° S 04:22:46 83° W 04:27:14 10° N visible
24 May 6.0 02:59:34 10° SE 03:02:26 17° E 03:05:20 10° NE visible
24 May 4.1 04:36:09 13° SSW 04:39:55 45° WNW 04:44:11 10° N visible
25 May 5.2 03:16:14 14° SE 03:19:19 30° E 03:23:11 10° NNE visible
25 May 4.9 04:53:27 10° SW 04:57:09 25° WNW 05:00:51 10° NNW visible
26 May 4.1 03:33:27 21° SSE 03:36:15 55° E 03:40:37 10° NNE visible
27 May 3.5 03:50:39 24° SSW 03:53:18 80° W 03:57:46 10° N visible
28 May 5.9 02:30:41 12° ESE 02:32:58 18° E 02:35:54 10° NE visible
28 May 4.1 04:07:50 21° SW 04:10:27 43° WNW 04:14:42 10° N visible
29 May 5.0 02:47:50 21° SE 02:49:50 31° E 02:53:44 10° NNE visible
29 May 4.9 04:25:00 15° WSW 04:27:42 25° WNW 04:31:21 10° NNW visible
30 May 4.0 03:04:58 32° SSE 03:06:48 56° E 03:11:08 10° NNE visible
30 May 5.6 04:42:35 10° WSW 04:45:02 14° WNW 04:47:29 10° NW visible
31 May 3.5 03:22:05 36° SSW 03:23:51 78° W 03:28:17 10° N visible
01 Jun 5.7 02:02:03 16° ESE 02:03:30 18° E 02:06:28 10° NE visible
01 Jun 4.2 03:39:12 28° SW 03:41:00 42° WNW 03:45:12 10° N visible
